When you browse on this site, cookies collect data to enhance your experience and personalize the content and advertising you see.
Visit our Privacy Policy to learn more. By continuing to use the site, you agree to this use of cookies and data.
  • In Czech Republic
  • List of Countries
  • For 7 days
  • Water Temperature
  • Satellite Maps
  • Weather Map
  • Weather Widgets
  • user-avatar
    Login

    Hourly Weather Pabna

    Today, 19 May, Sunday

    Time Temperature Precipitation Wind Pressure Humidity
    00:00 +34°C° 0 mm 5 mps 750 mmHg 78%
    01:00 +33°C° 0.2 mm 5 mps 750 mmHg 79%
    02:00 +33°C° 0.2 mm 4 mps 750 mmHg 81%
    03:00 +33°C° 0.2 mm 4 mps 750 mmHg 82%
    04:00 +32°C° 0 mm 4 mps 750 mmHg 82%
    05:00 +32°C° 0 mm 4 mps 751 mmHg 82%
    06:00 +33°C° 0 mm 3 mps 751 mmHg 82%
    07:00 +33°C° 0 mm 3 mps 751 mmHg 79%
    08:00 +34°C° 0 mm 3 mps 752 mmHg 77%
    09:00 +34°C° 0 mm 3 mps 752 mmHg 74%
    10:00 +36°C° 0 mm 3 mps 752 mmHg 64%
    11:00 +38°C° 0 mm 2 mps 752 mmHg 53%
    12:00 +40°C° 0 mm 1 mps 752 mmHg 47%
    13:00 +41°C° 0 mm 1 mps 752 mmHg 41%
    14:00 +42°C° 0 mm 1 mps 751 mmHg 35%
    15:00 +43°C° 0 mm 1 mps 750 mmHg 29%
    16:00 +42°C° 0 mm 1 mps 750 mmHg 29%
    17:00 +42°C° 0 mm 1 mps 750 mmHg 30%
    18:00 +41°C° 0 mm 1 mps 750 mmHg 30%
    19:00 +40°C° 0 mm 3 mps 750 mmHg 39%
    20:00 +39°C° 0 mm 5 mps 750 mmHg 48%
    21:00 +38°C° 0 mm 6 mps 751 mmHg 57%
    22:00 +36°C° 0.3 mm 6 mps 751 mmHg 61%
    23:00 +35°C° 0.3 mm 6 mps 752 mmHg 66%

    Tomorrow, 20 May, Monday

    Time Temperature Precipitation Wind Pressure Humidity
    00:00 +34°C° 0.3 mm 6 mps 752 mmHg 71%
    01:00 +34°C° 0 mm 5 mps 752 mmHg 72%
    02:00 +34°C° 0 mm 4 mps 752 mmHg 74%
    03:00 +33°C° 0 mm 4 mps 752 mmHg 76%
    04:00 +33°C° 0 mm 4 mps 752 mmHg 78%
    05:00 +33°C° 0 mm 4 mps 752 mmHg 79%
    06:00 +33°C° 0 mm 4 mps 752 mmHg 80%
    07:00 +34°C° 0 mm 4 mps 753 mmHg 73%
    08:00 +36°C° 0 mm 4 mps 753 mmHg 66%
    09:00 +37°C° 0 mm 4 mps 753 mmHg 58%
    10:00 +40°C° 0 mm 4 mps 753 mmHg 50%
    11:00 +40°C° 0 mm 3 mps 753 mmHg 42%
    12:00 +42°C° 0 mm 2 mps 752 mmHg 34%
    13:00 +42°C° 0 mm 2 mps 751 mmHg 32%
    14:00 +42°C° 0 mm 1 mps 751 mmHg 29%
    15:00 +42°C° 0 mm 1 mps 750 mmHg 27%
    16:00 +42°C° 0 mm 1 mps 749 mmHg 26%
    17:00 +42°C° 0 mm 1 mps 749 mmHg 26%
    18:00 +42°C° 0 mm 1 mps 749 mmHg 25%
    19:00 +41°C° 0 mm 2 mps 749 mmHg 31%
    20:00 +39°C° 0 mm 3 mps 750 mmHg 36%
    21:00 +37°C° 0 mm 4 mps 750 mmHg 42%
    22:00 +36°C° 0 mm 4 mps 750 mmHg 48%
    23:00 +36°C° 0 mm 4 mps 750 mmHg 54%

    Day after tomorrow, 21 May, Tuesday

    Time Temperature Precipitation Wind Pressure Humidity
    00:00 +35°C° 0 mm 4 mps 751 mmHg 60%
    01:00 +34°C° 0 mm 4 mps 751 mmHg 63%
    02:00 +34°C° 0 mm 4 mps 750 mmHg 66%
    03:00 +33°C° 0 mm 3 mps 750 mmHg 69%
    04:00 +33°C° 0 mm 4 mps 750 mmHg 72%
    05:00 +33°C° 0 mm 4 mps 751 mmHg 74%
    06:00 +32°C° 0 mm 4 mps 751 mmHg 76%
    07:00 +34°C° 0 mm 4 mps 751 mmHg 69%
    08:00 +36°C° 0 mm 4 mps 752 mmHg 62%
    09:00 +37°C° 0 mm 4 mps 752 mmHg 56%
    10:00 +40°C° 0 mm 4 mps 752 mmHg 48%
    11:00 +42°C° 0 mm 4 mps 752 mmHg 39%
    12:00 +44°C° 0 mm 3 mps 751 mmHg 31%
    13:00 +45°C° 0 mm 3 mps 750 mmHg 27%
    14:00 +46°C° 0 mm 3 mps 749 mmHg 22%
    15:00 +47°C° 0 mm 3 mps 749 mmHg 17%
    16:00 +46°C° 0 mm 2 mps 748 mmHg 20%
    17:00 +44°C° 0 mm 1 mps 748 mmHg 22%
    18:00 +44°C° 0 mm 1 mps 747 mmHg 24%
    19:00 +42°C° 0 mm 2 mps 748 mmHg 31%
    20:00 +41°C° 0 mm 4 mps 749 mmHg 37%
    21:00 +39°C° 0 mm 5 mps 750 mmHg 43%
    22:00 +37°C° 0 mm 5 mps 750 mmHg 50%
    23:00 +36°C° 0 mm 5 mps 750 mmHg 57%

    22 May, Wednesday

    Time Temperature Precipitation Wind Pressure Humidity
    00:00 +35°C° 0 mm 4 mps 750 mmHg 63%
    01:00 +34°C° 0 mm 4 mps 750 mmHg 65%
    02:00 +34°C° 0 mm 5 mps 750 mmHg 67%
    03:00 +33°C° 0 mm 5 mps 749 mmHg 68%
    04:00 +33°C° 0 mm 5 mps 750 mmHg 69%
    05:00 +33°C° 0 mm 5 mps 750 mmHg 70%
    06:00 +33°C° 0 mm 5 mps 750 mmHg 71%
    07:00 +34°C° 0 mm 5 mps 750 mmHg 65%
    08:00 +36°C° 0 mm 5 mps 751 mmHg 59%
    09:00 +37°C° 0 mm 5 mps 751 mmHg 53%
    10:00 +40°C° 0 mm 4 mps 751 mmHg 46%
    11:00 +42°C° 0 mm 4 mps 751 mmHg 40%
    12:00 +44°C° 0 mm 4 mps 750 mmHg 33%
    13:00 +45°C° 0 mm 3 mps 749 mmHg 28%
    14:00 +46°C° 0 mm 3 mps 748 mmHg 24%
    15:00 +48°C° 0 mm 3 mps 747 mmHg 20%
    16:00 +47°C° 0 mm 4 mps 747 mmHg 23%
    17:00 +45°C° 0 mm 4 mps 747 mmHg 25%
    18:00 +45°C° 0 mm 5 mps 747 mmHg 27%
    19:00 +42°C° 0 mm 6 mps 747 mmHg 36%
    20:00 +40°C° 0 mm 7 mps 748 mmHg 45%
    21:00 +38°C° 0 mm 8 mps 749 mmHg 54%
    22:00 +36°C° 0 mm 7 mps 749 mmHg 57%
    23:00 +35°C° 0 mm 7 mps 749 mmHg 60%

    23 May, Thursday

    Time Temperature Precipitation Wind Pressure Humidity
    00:00 +34°C° 0 mm 6 mps 749 mmHg 63%
    01:00 +34°C° 0 mm 5 mps 749 mmHg 64%
    02:00 +34°C° 0 mm 5 mps 749 mmHg 66%
    03:00 +33°C° 0 mm 4 mps 749 mmHg 67%
    04:00 +33°C° 0 mm 5 mps 749 mmHg 69%
    05:00 +33°C° 0 mm 5 mps 749 mmHg 71%
    06:00 +32°C° 0 mm 6 mps 749 mmHg 73%
    07:00 +34°C° 0 mm 6 mps 750 mmHg 69%
    08:00 +35°C° 0 mm 6 mps 751 mmHg 65%
    09:00 +36°C° 0 mm 6 mps 751 mmHg 62%
    10:00 +39°C° 0 mm 6 mps 751 mmHg 56%
    11:00 +41°C° 0 mm 6 mps 751 mmHg 49%
    12:00 +43°C° 0 mm 5 mps 750 mmHg 43%
    13:00 +43°C° 0 mm 5 mps 750 mmHg 41%
    14:00 +45°C° 0 mm 5 mps 749 mmHg 38%
    15:00 +46°C° 0 mm 5 mps 748 mmHg 36%
    16:00 +45°C° 0 mm 6 mps 748 mmHg 38%
    17:00 +44°C° 0 mm 6 mps 747 mmHg 39%
    18:00 +42°C° 0 mm 6 mps 747 mmHg 41%
    19:00 +41°C° 0.6 mm 7 mps 748 mmHg 47%
    20:00 +39°C° 0.6 mm 8 mps 748 mmHg 53%
    21:00 +37°C° 0.6 mm 9 mps 748 mmHg 59%
    22:00 +35°C° 0.1 mm 8 mps 749 mmHg 61%
    23:00 +35°C° 0.1 mm 7 mps 749 mmHg 64%

    24 May, Friday

    Time Temperature Precipitation Wind Pressure Humidity
    00:00 +34°C° 0.1 mm 5 mps 749 mmHg 66%
    01:00 +34°C° 0.2 mm 4 mps 749 mmHg 68%
    02:00 +33°C° 0.2 mm 3 mps 749 mmHg 70%
    03:00 +32°C° 0.2 mm 2 mps 749 mmHg 72%
    04:00 +33°C° 0 mm 4 mps 749 mmHg 73%
    05:00 +33°C° 0 mm 5 mps 749 mmHg 73%
    06:00 +33°C° 0 mm 6 mps 750 mmHg 73%
    07:00 +34°C° 0 mm 6 mps 750 mmHg 68%
    08:00 +35°C° 0 mm 6 mps 751 mmHg 63%
    09:00 +38°C° 0 mm 6 mps 751 mmHg 57%
    10:00 +40°C° 0 mm 6 mps 751 mmHg 52%
    11:00 +41°C° 0 mm 5 mps 750 mmHg 47%
    12:00 +43°C° 0 mm 5 mps 750 mmHg 42%
    13:00 +43°C° 0 mm 5 mps 749 mmHg 40%
    14:00 +45°C° 0 mm 5 mps 748 mmHg 38%
    15:00 +45°C° 0 mm 5 mps 747 mmHg 37%
    16:00 +41°C° 8 mm 6 mps 746 mmHg 48%
    17:00 +39°C° 8 mm 7 mps 746 mmHg 59%
    18:00 +35°C° 8 mm 8 mps 745 mmHg 70%
    19:00 +35°C° 3.9 mm 8 mps 746 mmHg 70%
    20:00 +35°C° 3.9 mm 7 mps 747 mmHg 70%
    21:00 +34°C° 3.9 mm 6 mps 748 mmHg 70%
    22:00 +34°C° 0 mm 6 mps 748 mmHg 72%
    23:00 +33°C° 0 mm 6 mps 748 mmHg 75%
    Show more